Regional Weather Roundup
Issued by NWS

Home | Current Version | Previous Version | Text Only | Print | Product List | Glossary On
Versions: 1 2 3 4 5 6 7 8 9 10 11 12 13 14 15 16 17 18 19 20 21 22 23 24 25 26 27 28 29 30 31 32 33 34 35 36 37 38 39 40 41 42 43 44 45 46 47 48 49 50
862
ASUS43 KIND 191909
RWRIN

WEATHER ROUNDUP FOR INDIANA
NATIONAL WEATHER SERVICE INDIANAPOLIS IN
300 PM EDT THU APR 19 2018

NOTE: "FAIR" INDICATES FEW OR NO CLOUDS BELOW 12,000 FEET WITH NO
SIGNIFICANT WEATHER AND/OR OBSTRUCTIONS TO VISIBILITY.

* - STATION DOES NOT REPORT WEATHER SUCH AS PRECIPITATION OR FOG.

+ - STATION NOT QUALITY CONTROLLED BY THE NATIONAL WEATHER SERVICE.
    USE DATA WITH CAUTION...ESPECIALLY DEWPOINT AND RELATIVE
    HUMIDITY OBSERVATIONS.

INZ001>003-010>013-019-020-192000-
NORTHWEST INDIANA

CITY           SKY/WX    TMP DP  RH WIND       PRES   REMARKS
GARY /AIRPORT/ MOSUNNY   45  30  57 NW14      30.36
KNOX *+        FAIR      46  32  57 N16G25    30.32R
LA PORTE +     FAIR      43  32  64 NW16G23   30.33R
MICHIGAN CITY+ FAIR      41  32  70 NW14G20   30.36R
MONTICELLO +   FAIR      52  26  36 N14       30.30S
RENSSELAER +   FAIR      52  16  24 N13G21    30.33R
VALPARAISO     FAIR      47  29  49 N14G23    30.34R

$$

LMZ046-743>745-192000-
SOUTHERN LAKE MICHIGAN

STATION/POSITION TIME  TEMP    WIND        PRES    WAVE
                       AIR SEA DIR/SP/G            HT
                 (UTC) (F)     (DEG/KT/KT) (MB)    (FT)
BURNS HARBOR     1840   37     330/  9/ 13 1028.8R
MICHIGAN CITY    1840   38     300/ 14/ 15   N/A

$$

INZ004-005-014>016-021>024-192000-
NORTH CENTRAL INDIANA

CITY           SKY/WX    TMP DP  RH WIND       PRES   REMARKS
ELKHART        FAIR      48  28  46 NW17G23   30.28R
GOSHEN         FAIR      49  30  48 NW15G30   30.27R
LOGANSPORT +   FAIR      50  30  46 NW13G18   30.30R
PERU/GRISSOM   FAIR      53  28  38 NW16G23   30.27R
ROCHESTER +    FAIR      54  28  37 NW14      30.29R
SOUTH BEND     FAIR      44  30  57 NW18      30.31R
WARSAW +       FAIR      50  30  46 NW17      30.26S

$$

INZ006>009-017-018-025>027-192000-
NORTHEAST INDIANA

CITY           SKY/WX    TMP DP  RH WIND       PRES   REMARKS
ANGOLA *+      FAIR      50  25  37 NW12G22   30.22R
AUBURN +       FAIR      52  30  43 NW16G22   30.23S
FORT WAYNE     FAIR      53  33  46 N20G26    30.24R
HUNTINGTON +   FAIR      51  29  42 NW10G17   30.25S
KENDALLVILLE + FAIR      50  20  30 N16G22    30.23S

$$

INZ028-029-035-036-043>045-051>053-192000-
WEST CENTRAL INDIANA

CITY           SKY/WX    TMP DP  RH WIND       PRES   REMARKS
CRAWFORDSVL +  FAIR      49  32  52 N14       30.31S
GREENCASTLE +  FAIR      50  30  46 N12G17    30.32R
LAFAYETTE      FAIR      52  30  43 N14       30.32R
TERRE HAUTE    FAIR      52  33  48 N13       30.34R

$$

INZ030>032-037>040-046>048-054>057-064-065-192000-
CENTRAL INDIANA

CITY           SKY/WX    TMP DP  RH WIND       PRES   REMARKS
ANDERSON       SUNNY     52  30  43 NW17G23   30.27
COLUMBUS       MOSUNNY   52 N/A N/A N14G21    30.30S
FISHERS *+     FAIR      50  36  57 N10G17    30.29S
FRANKFORT +    FAIR      53  33  46 N15       30.31S
GREENWOOD *+   FAIR      51  30  44 N9G17     30.30R
INDIANAPOLIS   FAIR      52  30  43 NW8G20    30.30R
-EAGLE CREEK   FAIR      52  32  46 NW12      30.29R
KOKOMO +       FAIR      53  31  42 N14       30.28R
MARION +       FAIR      50  32  49 N13       30.27S
MT COMFORT *+  FAIR      50  36  57 N10G16    30.29R
SHELBYVILLE    FAIR      52  30  43 NW10G21   30.28S
ZIONSVILLE +   FAIR      49  33  53 NW13G20   30.29S

$$

INZ033-034-041-042-049-050-058-059-192000-
EAST CENTRAL INDIANA

CITY           SKY/WX    TMP DP  RH WIND       PRES   REMARKS
MUNCIE         FAIR      53  30  41 NW10      30.25S
RICHMOND +     FAIR      48  30  49 NW15      30.25S

$$

INZ060-061-067>069-081>083-085>088-192000-
SOUTHWEST INDIANA

CITY           SKY/WX    TMP DP  RH WIND       PRES   REMARKS
EVANSVILLE     PTSUNNY   50  34  54 N12G20    30.36R
HUNTINGBURG +  PTSUNNY   49  34  56 N7        30.34R
WASHINGTON +   FAIR      51  30  45 NE14      30.34R

$$

INZ062-063-066-070>080-084-089>092-192000-
SOUTH CENTRAL AND SOUTHEAST INDIANA

CITY           SKY/WX    TMP DP  RH WIND       PRES   REMARKS
BATESVILLE +   MOSUNNY   48  32  53 MISG      30.27S
BEDFORD +      FAIR      50  30  46 NW7       30.31R
BLOOMINGTON    FAIR      53  32  44 N10       30.31R
FRENCH LICK *+ FAIR      48  27  43 NW6       30.32R
MADISON *+     FAIR      48  30  49 N9G18     30.31R
NORTH VERNON + FAIR      48  30  49 N9G16     30.31R
SEYMOUR +      FAIR      50  32  50 NE14      30.31R

$$





USA.gov is the U.S. government's official web portal to all federal, state and local government web resources and services.